| time (UTC) | temp F | wind direction | speed knots | gust knots | rain 1hr in | rain 24hr in | rain mn in | humidity % | barometer mb |
| 20260508043831 | 54 | 102 | 0.0 | 0.0 | 0.00 | 0.03 | 0.00 | 52 | 1015.5 |
| 20260508042830 | 54 | 161 | 0.0 | 0.0 | 0.00 | 0.03 | 0.00 | 53 | 1015.4 |
| 20260508041830 | 54 | 96 | 0.0 | 0.0 | 0.00 | 0.03 | 0.00 | 53 | 1015.4 |
| 20260508040830 | 54 | 111 | 0.0 | 0.0 | 0.00 | 0.03 | 0.00 | 52 | 1015.3 |
| 20260508035829 | 55 | 80 | 0.0 | 0.0 | 0.00 | 0.03 | 0.03 | 53 | 1015.2 |
| 20260508034829 | 56 | 101 | 0.0 | 0.0 | 0.00 | 0.03 | 0.03 | 51 | 1015.1 |
| 20260508033849 | 56 | 97 | 0.0 | 0.0 | 0.00 | 0.03 | 0.03 | 50 | 1015.1 |
| 20260508032829 | 56 | 67 | 0.0 | 0.0 | 0.00 | 0.03 | 0.03 | 49 | 1015.1 |
| 20260508031828 | 57 | 143 | 0.0 | 0.0 | 0.00 | 0.03 | 0.03 | 48 | 1014.9 |
| 20260508030829 | 57 | 192 | 0.0 | 0.0 | 0.00 | 0.03 | 0.03 | 48 | 1014.9 |
| 20260508025828 | 57 | 83 | 0.0 | 0.0 | 0.00 | 0.03 | 0.03 | 48 | 1014.7 |
| 20260508024827 | 57 | 131 | 0.0 | 0.0 | 0.00 | 0.04 | 0.03 | 49 | 1014.7 |
| 20260508023827 | 57 | 116 | 0.0 | 0.0 | 0.00 | 0.04 | 0.03 | 50 | 1014.5 |
| 20260508022827 | 57 | 140 | 0.0 | 0.0 | 0.00 | 0.06 | 0.03 | 52 | 1014.5 |
| 20260508021827 | 57 | 202 | 0.0 | 0.0 | 0.00 | 0.07 | 0.03 | 53 | 1014.4 |
| 20260508020826 | 57 | 120 | 0.0 | 0.0 | 0.00 | 0.07 | 0.03 | 54 | 1014.2 |
| 20260508015827 | 57 | 92 | 0.0 | 0.0 | 0.00 | 0.07 | 0.03 | 55 | 1013.9 |
| 20260508014906 | 57 | 101 | 0.0 | 0.0 | 0.00 | 0.07 | 0.03 | 54 | 1013.8 |
| 20260508013825 | 57 | 108 | 0.0 | 0.0 | 0.00 | 0.07 | 0.03 | 54 | 1013.5 |
| 20260508012825 | 57 | 76 | 0.0 | 0.0 | 0.00 | 0.07 | 0.03 | 54 | 1013.4 |
| 20260508011825 | 57 | 65 | 0.0 | 0.0 | 0.00 | 0.07 | 0.03 | 55 | 1013.4 |
| 20260508010824 | 56 | 25 | 0.0 | 0.0 | 0.00 | 0.07 | 0.03 | 58 | 1013.2 |
| 20260508005824 | 56 | 180 | 0.0 | 0.0 | 0.00 | 0.07 | 0.03 | 60 | 1013.1 |
| 20260508004824 | 57 | 74 | 0.0 | 0.0 | 0.00 | 0.07 | 0.03 | 59 | 1013.1 |
| 20260508003823 | 58 | 74 | 0.0 | 0.0 | 0.00 | 0.07 | 0.03 | 57 | 1013.1 |
| 20260508002823 | 59 | 74 | 0.0 | 0.0 | 0.00 | 0.07 | 0.03 | 54 | 1013.0 |
| 20260508001842 | 60 | 56 | 0.0 | 0.0 | 0.00 | 0.07 | 0.03 | 53 | 1012.8 |
| 20260508000822 | 60 | 55 | 0.0 | 0.0 | 0.00 | 0.07 | 0.03 | 51 | 1012.9 |
| 20260507235822 | 61 | 90 | 0.0 | 0.0 | 0.00 | 0.07 | 0.03 | 50 | 1012.7 |
| 20260507234841 | 62 | 121 | 0.0 | 0.0 | 0.00 | 0.07 | 0.03 | 49 | 1012.6 |
| 20260507233821 | 62 | 92 | 0.0 | 0.0 | 0.00 | 0.07 | 0.03 | 48 | 1012.4 |
| 20260507232821 | 62 | 76 | 0.0 | 0.0 | 0.00 | 0.07 | 0.03 | 49 | 1012.2 |
| 20260507231820 | 63 | 60 | 0.0 | 0.0 | 0.00 | 0.07 | 0.03 | 48 | 1012.0 |
| 20260507230820 | 63 | 53 | 0.0 | 0.0 | 0.00 | 0.07 | 0.03 | 48 | 1011.9 |
| 20260507225900 | 63 | 120 | 0.0 | 0.0 | 0.00 | 0.07 | 0.03 | 50 | 1011.9 |
| 20260507224839 | 64 | 71 | 0.0 | 0.0 | 0.00 | 0.07 | 0.03 | 48 | 1011.8 |
| 20260507223819 | 64 | 88 | 0.0 | 0.0 | 0.00 | 0.07 | 0.03 | 48 | 1011.7 |
| 20260507222819 | 64 | 109 | 0.0 | 0.0 | 0.00 | 0.07 | 0.03 | 49 | 1011.6 |
| 20260507221818 | 65 | 90 | 0.0 | 0.0 | 0.00 | 0.07 | 0.03 | 50 | 1011.6 |
| 20260507220818 | 64 | 333 | 0.0 | 0.0 | 0.00 | 0.07 | 0.03 | 66 | 1011.6 |
| 20260507215818 | 64 | 269 | 0.0 | 0.0 | 0.00 | 0.07 | 0.03 | 73 | 1011.4 |
| 20260507214817 | 63 | 290 | 0.0 | 0.0 | 0.00 | 0.07 | 0.03 | 70 | 1011.3 |
| 20260507213817 | 63 | 271 | 0.0 | 0.0 | 0.00 | 0.07 | 0.03 | 73 | 1011.3 |
| 20260507212817 | 62 | 337 | 0.0 | 0.0 | 0.00 | 0.07 | 0.03 | 72 | 1011.4 |
| 20260507211818 | 63 | 313 | 0.0 | 0.0 | 0.00 | 0.07 | 0.03 | 69 | 1011.4 |
| 20260507210836 | 63 | 74 | 0.0 | 0.0 | 0.00 | 0.07 | 0.03 | 69 | 1011.4 |
| 20260507205816 | 63 | 342 | 0.0 | 0.0 | 0.00 | 0.07 | 0.03 | 70 | 1011.3 |
| 20260507204816 | 62 | 326 | 0.0 | 0.0 | 0.00 | 0.07 | 0.03 | 75 | 1011.2 |
| 20260507203815 | 61 | 336 | 0.0 | 0.0 | 0.00 | 0.07 | 0.03 | 78 | 1011.2 |
| 20260507202815 | 60 | 344 | 0.0 | 0.0 | 0.00 | 0.07 | 0.03 | 74 | 1011.3 |
| 20260507201814 | 60 | 330 | 0.0 | 0.0 | 0.00 | 0.07 | 0.03 | 75 | 1011.3 |
| 20260507200816 | 60 | 333 | 0.0 | 0.0 | 0.00 | 0.07 | 0.03 | 76 | 1011.4 |
| 20260507195814 | 60 | 338 | 0.0 | 0.0 | 0.00 | 0.07 | 0.03 | 76 | 1011.6 |
| 20260507194814 | 58 | 338 | 0.0 | 0.0 | 0.01 | 0.07 | 0.03 | 79 | 1012.0 |
| 20260507193813 | 58 | 73 | 0.0 | 0.0 | 0.02 | 0.07 | 0.03 | 80 | 1012.3 |
| 20260507192813 | 58 | 89 | 0.0 | 0.0 | 0.02 | 0.07 | 0.03 | 77 | 1012.5 |
| 20260507191812 | 58 | 90 | 0.0 | 0.0 | 0.02 | 0.07 | 0.03 | 81 | 1012.3 |
| 20260507190812 | 57 | 91 | 0.0 | 0.0 | 0.02 | 0.07 | 0.03 | 79 | 1012.4 |
| 20260507185812 | 57 | 94 | 0.0 | 0.0 | 0.02 | 0.07 | 0.03 | 79 | 1012.5 |
| 20260507184811 | 57 | 97 | 0.0 | 0.0 | 0.01 | 0.06 | 0.02 | 80 | 1012.8 |
| 20260507183811 | 57 | 96 | 0.0 | 0.0 | 0.00 | 0.05 | 0.01 | 76 | 1012.7 |
| 20260507182811 | 57 | 96 | 0.0 | 0.0 | 0.00 | 0.05 | 0.01 | 77 | 1012.8 |
| 20260507181811 | 57 | 77 | 0.0 | 0.0 | 0.01 | 0.05 | 0.01 | 75 | 1012.7 |
| 20260507180810 | 57 | 46 | 0.0 | 0.0 | 0.01 | 0.05 | 0.01 | 76 | 1012.6 |
| 20260507175810 | 57 | 128 | 0.0 | 0.0 | 0.01 | 0.05 | 0.01 | 76 | 1012.7 |
| 20260507174830 | 57 | 167 | 0.0 | 0.0 | 0.01 | 0.05 | 0.01 | 78 | 1012.7 |
| 20260507173830 | 57 | 130 | 0.0 | 0.0 | 0.01 | 0.05 | 0.01 | 79 | 1012.8 |
| 20260507172810 | 57 | 194 | 0.0 | 0.0 | 0.01 | 0.05 | 0.01 | 78 | 1012.7 |
| 20260507171829 | 57 | 123 | 0.0 | 0.0 | 0.00 | 0.04 | 0.00 | 78 | 1012.9 |
| 20260507170809 | 57 | 136 | 0.0 | 0.0 | 0.00 | 0.04 | 0.00 | 78 | 1012.8 |
| 20260507165808 | 57 | 108 | 0.0 | 0.0 | 0.00 | 0.05 | 0.00 | 78 | 1012.8 |
| 20260507164808 | 57 | 86 | 0.0 | 0.0 | 0.00 | 0.05 | 0.00 | 76 | 1012.9 |
| 20260507163808 | 58 | 55 | 0.0 | 0.0 | 0.00 | 0.05 | 0.00 | 75 | 1012.8 |
| 20260507162807 | 58 | 128 | 0.0 | 0.0 | 0.00 | 0.05 | 0.00 | 74 | 1012.8 |
| 20260507161807 | 58 | 228 | 0.0 | 0.0 | 0.00 | 0.05 | 0.00 | 75 | 1012.8 |
| 20260507160807 | 58 | 217 | 0.0 | 0.0 | 0.00 | 0.05 | 0.00 | 75 | 1012.8 |
| 20260507155806 | 58 | 76 | 0.0 | 0.0 | 0.00 | 0.05 | 0.00 | 76 | 1013.0 |
| 20260507154806 | 58 | 83 | 0.0 | 0.0 | 0.00 | 0.05 | 0.00 | 75 | 1013.3 |
| 20260507153806 | 58 | 65 | 0.0 | 0.0 | 0.00 | 0.05 | 0.00 | 75 | 1013.1 |
| 20260507152805 | 58 | 78 | 0.0 | 0.0 | 0.00 | 0.05 | 0.00 | 76 | 1013.2 |
| 20260507151825 | 59 | 36 | 0.0 | 0.0 | 0.00 | 0.05 | 0.00 | 75 | 1013.2 |
| 20260507150805 | 59 | 46 | 0.0 | 0.0 | 0.00 | 0.05 | 0.00 | 74 | 1013.1 |
| 20260507145825 | 59 | 111 | 0.0 | 0.0 | 0.00 | 0.05 | 0.00 | 74 | 1013.0 |
| 20260507144806 | 59 | 76 | 0.0 | 0.0 | 0.00 | 0.05 | 0.00 | 74 | 1013.0 |
| 20260507143804 | 59 | 84 | 0.0 | 0.0 | 0.00 | 0.05 | 0.00 | 74 | 1012.8 |
| 20260507142804 | 59 | 183 | 0.0 | 0.0 | 0.00 | 0.05 | 0.00 | 74 | 1012.9 |
| 20260507141804 | 59 | 45 | 0.0 | 0.0 | 0.00 | 0.05 | 0.00 | 74 | 1013.1 |
| 20260507140805 | 60 | 157 | 0.0 | 0.0 | 0.00 | 0.05 | 0.00 | 73 | 1012.8 |
| 20260507135843 | 60 | 266 | 0.0 | 0.0 | 0.00 | 0.05 | 0.00 | 73 | 1012.5 |
| 20260507134803 | 60 | 113 | 0.0 | 0.0 | 0.00 | 0.05 | 0.00 | 72 | 1013.1 |
| 20260507133803 | 60 | 86 | 0.0 | 0.0 | 0.00 | 0.05 | 0.00 | 74 | 1013.1 |
| 20260507132802 | 60 | 55 | 0.0 | 0.0 | 0.00 | 0.05 | 0.00 | 74 | 1013.0 |
| 20260507131802 | 60 | 223 | 0.0 | 0.0 | 0.00 | 0.05 | 0.00 | 74 | 1013.2 |
| 20260507130802 | 60 | 142 | 0.0 | 0.0 | 0.00 | 0.05 | 0.00 | 75 | 1013.1 |
| 20260507125802 | 60 | 120 | 0.0 | 0.9 | 0.00 | 0.05 | 0.00 | 76 | 1013.0 |
| 20260507124801 | 60 | 63 | 0.0 | 0.0 | 0.00 | 0.06 | 0.00 | 76 | 1013.0 |
| 20260507123801 | 60 | 79 | 0.0 | 0.0 | 0.00 | 0.06 | 0.00 | 76 | 1013.0 |
| 20260507122800 | 60 | 62 | 0.0 | 0.0 | 0.00 | 0.06 | 0.00 | 76 | 1013.1 |
| 20260507121800 | 60 | 157 | 0.0 | 0.0 | 0.00 | 0.06 | 0.00 | 76 | 1013.1 |
| 20260507120801 | 59 | 124 | 0.0 | 0.0 | 0.00 | 0.06 | 0.00 | 76 | 1013.0 |
| 20260507115819 | 59 | 188 | 0.0 | 0.0 | 0.00 | 0.06 | 0.00 | 76 | 1012.9 |
| 20260507114819 | 59 | 61 | 0.0 | 0.0 | 0.00 | 0.06 | 0.00 | 76 | 1012.8 |
| 20260507113759 | 59 | 224 | 0.0 | 0.0 | 0.00 | 0.06 | 0.00 | 76 | 1012.9 |
| 20260507112758 | 59 | 61 | 0.0 | 0.0 | 0.00 | 0.06 | 0.00 | 76 | 1012.8 |
| 20260507111758 | 59 | 137 | 0.0 | 0.0 | 0.00 | 0.06 | 0.00 | 76 | 1012.6 |
| 20260507110818 | 59 | 123 | 0.0 | 0.0 | 0.00 | 0.06 | 0.00 | 77 | 1012.4 |
| 20260507105757 | 59 | 34 | 0.0 | 0.0 | 0.00 | 0.06 | 0.00 | 76 | 1012.4 |
| 20260507104757 | 59 | 122 | 0.0 | 0.0 | 0.00 | 0.06 | 0.00 | 77 | 1012.2 |
| 20260507103756 | 60 | 93 | 0.0 | 0.0 | 0.00 | 0.06 | 0.00 | 77 | 1012.1 |
| 20260507102756 | 60 | 221 | 0.0 | 0.0 | 0.00 | 0.06 | 0.00 | 77 | 1012.1 |
| 20260507101756 | 60 | 88 | 0.0 | 0.0 | 0.00 | 0.06 | 0.00 | 78 | 1012.3 |
| 20260507100755 | 60 | 142 | 0.0 | 0.0 | 0.00 | 0.06 | 0.00 | 77 | 1012.1 |
| 20260507095755 | 60 | 107 | 0.0 | 0.0 | 0.00 | 0.06 | 0.00 | 78 | 1011.9 |
| 20260507094755 | 60 | 167 | 0.0 | 0.0 | 0.00 | 0.06 | 0.00 | 79 | 1012.4 |
| 20260507093815 | 60 | 119 | 0.0 | 0.0 | 0.00 | 0.06 | 0.00 | 78 | 1012.0 |
| 20260507092754 | 60 | 133 | 0.0 | 0.0 | 0.00 | 0.06 | 0.00 | 78 | 1012.3 |
| 20260507091754 | 60 | 98 | 0.0 | 0.0 | 0.00 | 0.06 | 0.00 | 79 | 1012.1 |
| 20260507090753 | 61 | 183 | 0.0 | 0.0 | 0.00 | 0.06 | 0.00 | 79 | 1011.8 |
| 20260507085753 | 61 | 180 | 0.0 | 0.0 | 0.00 | 0.06 | 0.00 | 80 | 1011.8 |
| 20260507084753 | 62 | 104 | 0.0 | 0.0 | 0.00 | 0.06 | 0.00 | 79 | 1011.8 |
| 20260507083752 | 62 | 88 | 0.0 | 0.0 | 0.00 | 0.06 | 0.00 | 81 | 1012.4 |
| 20260507082752 | 62 | 153 | 0.0 | 0.0 | 0.00 | 0.06 | 0.00 | 80 | 1012.2 |
| 20260507081752 | 62 | 121 | 0.0 | 0.0 | 0.00 | 0.06 | 0.00 | 80 | 1012.1 |
| 20260507080751 | 62 | 116 | 0.0 | 0.0 | 0.00 | 0.06 | 0.00 | 80 | 1012.2 |
| 20260507075811 | 62 | 169 | 0.0 | 0.0 | 0.00 | 0.06 | 0.00 | 81 | 1012.2 |
| 20260507074751 | 63 | 94 | 0.0 | 0.0 | 0.00 | 0.06 | 0.00 | 84 | 1012.4 |
| 20260507073750 | 63 | 223 | 0.0 | 0.0 | 0.00 | 0.06 | 0.00 | 82 | 1012.2 |
| 20260507072750 | 63 | 150 | 0.0 | 0.0 | 0.00 | 0.06 | 0.00 | 83 | 1012.4 |
| 20260507071810 | 63 | 125 | 0.0 | 0.0 | 0.00 | 0.06 | 0.00 | 82 | 1012.1 |
| 20260507070809 | 63 | 117 | 0.0 | 0.0 | 0.00 | 0.06 | 0.00 | 83 | 1012.0 |
| 20260507065749 | 63 | 212 | 0.0 | 0.0 | 0.00 | 0.06 | 0.00 | 86 | 1011.6 |
| 20260507064749 | 62 | 133 | 0.0 | 0.0 | 0.00 | 0.06 | 0.00 | 91 | 1011.7 |
| 20260507063748 | 62 | 167 | 0.0 | 0.0 | 0.00 | 0.06 | 0.00 | 93 | 1012.3 |
| 20260507062748 | 62 | 182 | 0.0 | 0.0 | 0.00 | 0.06 | 0.00 | 92 | 1012.0 |
| 20260507061747 | 63 | 182 | 0.0 | 0.0 | 0.00 | 0.06 | 0.00 | 91 | 1011.8 |
| 20260507060747 | 63 | 182 | 0.0 | 0.0 | 0.00 | 0.06 | 0.00 | 91 | 1011.8 |
| 20260507055747 | 63 | 182 | 0.0 | 0.0 | 0.00 | 0.06 | 0.00 | 92 | 1012.3 |
| 20260507054747 | 63 | 274 | 0.0 | 0.0 | 0.00 | 0.06 | 0.00 | 92 | 1012.3 |
| 20260507053806 | 63 | 274 | 0.0 | 0.0 | 0.00 | 0.06 | 0.00 | 92 | 1012.6 |
| 20260507052746 | 63 | 274 | 0.0 | 0.0 | 0.00 | 0.06 | 0.00 | 92 | 1012.8 |
| 20260507051746 | 63 | 302 | 0.0 | 0.0 | 0.00 | 0.06 | 0.00 | 92 | 1012.7 |
| 20260507050745 | 63 | 293 | 0.0 | 0.0 | 0.00 | 0.06 | 0.00 | 92 | 1012.3 |
| 20260507045845 | 63 | 300 | 0.0 | 0.0 | 0.00 | 0.06 | 0.00 | 92 | 1012.2 |
| 20260507044745 | 63 | 313 | 0.0 | 0.0 | 0.00 | 0.06 | 0.00 | 92 | 1012.1 |